Location: Island Grove Observatory.
(44.2333°N, 79.4500°W)
Time: 15:04:35
(UTC-05:00)

X-37B - Pass Details

Date: 07 December 2021
Orbit: 334 x 337 km, 45.0° (Epoch: 11 January)

Event Time Altitude Azimuth Distance (km) Brightness Sun altitude
Rises 18:18:25 0° 233° (SW) 2,095 5.6 -17.1°
Reaches altitude 10° 18:20:29 10° 224° (SW) 1,261 4.0 -17.5°
Enters shadow 18:22:58 35° 163° (SSE) 565 1.3 -17.9°
